Location: Unspecified
(0.0000°N, 0.0000°E)
Time: 07:56:23
(UTC+00:00)

XW-2B - Visible Passes

Search period start: 10 July 2020 00:00
Search period end: 20 July 2020 00:00
Orbit: 508 x 526 km, 97.5° (Epoch: 10 July)

Date Brightness Start Highest point End Pass type
(mag) Time Alt. Az. Time Alt. Az. Time Alt. Az.
10 Jul ? 04:55:31 10° ENE 04:58:10 18° ESE 05:00:49 10° SE visible
11 Jul ? 04:42:51 10° E 04:43:49 11° ESE 04:44:48 10° ESE visible
14 Jul ? 05:30:49 10° NNE 05:34:34 72° E 05:38:19 10° S visible
15 Jul ? 05:16:39 10° NNE 05:20:13 40° ESE 05:23:45 10° S visible
16 Jul ? 05:02:48 10° NE 05:05:51 24° ESE 05:08:54 10° SSE visible
16 Jul ? 18:30:51 10° SW 18:32:28 12° WSW 18:34:06 10° WNW visible
17 Jul ? 04:49:25 10° ENE 04:51:30 14° ESE 04:53:34 10° SE visible
